Погода Верхотурье

Погода Верхотурье : погода сейчас, прогноз погоды и архив. Всё, что Вы хотите узнать о погоде Верхотурье!

Хотите узнать прогноз погоды Верхотурье? Тогда Вам сюда: Погода Верхотурье

Поиск расширенной информации на нашем сайте:

Другие новости

Новости СМИ2

Главная страница сайта

Новости сайта

03.07.2017

Напоминаем, что на нашем специализированном сайте Метеоцентр.Азия вы можете получить высокодетализированные автоматические прогнозы погоды по пунктам России, СНГ и мира в авиационном формате (включающие направление и скорость ветра, видимость, явления погоды, количество и форму облачности, нижнюю и верхнюю границу облачности).


Погода Верхотурье - сегодня

Время (UTC), дата Ветер
(°,м/с) 
Видим.   Явления Облачность Т
(°С)
Тd
(°С)
f(%) Тe
(°С)
Pmin
(гПа)
dP
(гПа)
Po
(мм)
O2
(г/м3)
Тmin Tmax R s Состояние
почвы
21 14.11.18 250 (З) 20000 м    10/8 300 м кучево-дожд., средняя 
[Cb calv|Ac As]
-1.7 -11.9 46 -4  1027.2  0.6  758  309           
00 15.11.18 250 (З) 20000 м    10/6 300 м кучево-дожд., средняя 
[Cb calv|As trans]
-2 -10.1 54 -4  1027.7  0.5  759  309           
06 15.11.18 260 (З) 20000 м    9/8 600 м средняя 
[Sc|Ac und]
-2.2 -8.5 62 -4  1031.2  2.1  761  310           
09 15.11.18 260 (З) 20000 м    8/1 600 м средняя, верхняя 
[Sc|Ac trans|Ci]
-0.8 -8.1 58 -2  1033.2  2.1  763  309           
12 15.11.18 270 (З) 20000 м    9/1 600 м средняя, верхняя 
[Sc|Ac trans|Ci fib]
-2.6 -8 66 -2  1035.8  2.5  765  312           
18 15.11.18 270 (З) 20000 м    10/5 600 м средняя 
[Sc|Ac As]
-4.3 -7.7 77 -4  1038.9  767  315           
21 15.11.18 240 (ЮЗ) 20000 м    10/5 600 м средняя 
[Sc|As op]
-4 -7.5 77 -4  1039.4  0.5  767  315           
00 16.11.18 220 (ЮЗ) 20000 м    10/6 300 м кучево-дожд., средняя 
[Cb calv|As op]
-4.4 -6.9 83 -6  1039.1  -0.3  767  315           
03 16.11.18 230 (ЮЗ) 4000 м  слаб. ливневой снег  10/8 300 м кучево-дожд., средняя 
[Cb calv|As op]
-4.6 -7.1 83 -6  1038.1  -1.1  766  315  -4.8    0.0     
06 16.11.18 250 (З) 20000 м  в посл. час ливневой снег  8/3 300 м кучево-дожд., средняя, верхняя 
[Cb calv|Ac trans|Ci sp]
-4 -6.9 80 -5  1037  -1  765  314           
09 16.11.18 230 (ЮЗ) 20000 м  слаб. ливневой снег  10/6 300 м кучево-дожд., средняя 
[Cb calv|Ac As]
-3.1 -6.5 77 -4  1034.9  -1.9  764  312           
12 16.11.18 240 (ЮЗ) 20000 м  {ливн. осадки}  10/5 300 м кучево-дожд., средняя 
[Cb calv|Ac As]
-2.6 -5.8 79 -4  1032.3  -2.5  762  311           
18 16.11.18 220 (ЮЗ) 2000 м  снег  10/10 300 м 
[Frnb|Ns]
-2.8 -3.8 93 -4  1025.7  -3  757  309           
21 16.11.18 250 (З) 4000 м  слаб. снег  10/8 300 м средняя 
[Frnb|As op]
-3 -4 93 -4  1023.7  -1.9  756  308           
00 17.11.18 270 (З) 20000 м  {снег}  10/8 600 м средняя 
[Sc|As op]
-2.4 -4.2 87 -3  1022.1  -1.5  755  307           
03 17.11.18 270 (З) 20000 м    10/6 600 м средняя 
[Sc|Ac As]
-2.2 -3.9 88 -2  1021.3  -0.8  754  307  -3    равномерный
сухой снег
100% 
06 17.11.18 270 (З) 20000 м    10/6 600 м средняя 
[Sc|Ac As]
-1 -3.2 85 -2  1020.7  -0.5  754  305           
09 17.11.18 290 (З) 20000 м    8/4 600 м средняя 
[Sc|Ac trans]
+0.8 -2.4 79 +1  1019.7  -0.8  753  303           
12 17.11.18 тихо ()   10 км  туман поземный  6/3 600 м средняя, верхняя 
[Sc|Ac trans|Ci fib]
-3.3 -4.4 92 -3  1019.6  -0.3  753  308           
18 17.11.18 160 (Ю) 20000 м  {туман}  9/8 300 м кучево-дожд., средняя 
[Cb calv|Ac und]
-3.6 -4.5 93 -3  1018.5  -0.8  752  308           
21 17.11.18 170 (Ю) 20000 м    10/10 300 м 
[St]
-2 -3 93 -1  1018.1  -0.3  752  305           
00 18.11.18 160 (Ю) 20000 м    10/10 300 м 
[St]
-1.1 -2.3 92 -2  1017.7  -0.4  751  304           
03 18.11.18 160 (Ю) 2000 м  снег  10/10 300 м 
[Frnb|Ns]
-1.1 -2.1 93 -2  1017.9  0.2  752  304  -4.5    0.7  равномерный
сухой снег
100% 
06 18.11.18 160 (Ю) 4000 м  снег  10/10 300 м 
[Frnb|Ns]
-1.1 -2.2 92 -2  1018.3  0.4  752  304           
09 18.11.18 170 (Ю) 10 км  слаб. снег  10/10 300 м 
[Frnb|Ns]
-1.1 -2.3 92 -2  1018.2  -0.2  752  304           
Время (UTC), дата Ветер
(°,м/с) 
Видим.   Явления Облачность Т
(°С)
Тd
(°С)
f(%) Тe
(°С)
Pmin
(гПа)
dP
(гПа)
Po
(мм)
O2
(г/м3)
Тmin Tmax R s Состояние
почвы

Для получения пояснительной информации подведите курсор к названию столбца.

ПОГОДА Верхотурье - архив

Всё, что Вы хотите узнать о погоде Верхотурье - удобно и подробно!

Выберите нужную дату (начиная с 1 января 2015* года) и нажмите кнопку "Найти".
Будут отображены архивные сводки погоды по пункту Верхотурье, начиная с указанной даты.


Отображать данные в формате CSV (для использования в таблицах Excel)


Внимание! Наш архив погоды предназначен исключительно для личного некоммерческого использования в познавательных целях. Если Вам необходимы официальные справки о состоянии погоды (для производственных, юридических, коммерческих и т.п. целей), обращайтесь в органы Росгидромета.

*Примечание: данная дата относится к архиву по метеостанциям СССР (Россия, СНГ, Балтия).
Архив по метеостанциям Зарубежной Европы и Азии (кроме Китая) хранится 10 дней, по другим регионам земного шара (Китай, Африка, Америка, Австралия, Океания) - 1 день.

Верхотурье - район местоположения метеостанции


Название, широта, долгота, высота метеостанции:
Верхотурье 58.9°ш. 60.8°д. 125 м над ур. моря [Российская Федерация]

Дополнительная информация

В oтличие oт бoльшинства пoгoдных сайтoв мы публикуем пoдрoбную метеoинфoрмацию в детальнoм прoфессиoнальнoм фoрмате.

Характеристики температуры и влажнoсти вoздуха измеряются на высoте 2 м в тени вдали oт зданий и деревьев.
Скoрoсть ветра измеряется на высoте 10 м (на урoвне рoста челoвека скoрoсть ветра ниже в 1.5-2 раза). Если метеoстанция нахoдится в гoрoде или в лесу, тo скoрoсть ветра занижена на 2-4 м/с пo сравнению с oткрытым местoм. Скoрoсть ветра над акватoриями крупных рек и oзёр, а также на вершинах хoлмoв на 2-5 м/с выше, чем в oбычных услoвиях.
Атмoсфернoе давление в разных тoчках местнoсти мoжет значительнo oтличаться oт давления на метеoстанции, в зависимoсти oт услoвий рельефа (при пoдъёме на 10 м давление пoнижается примернo на 1 мм рт.ст.).